Weather History for Branson, MO

Change the Weather History Date:

Tuesday, July 30, 2013

  Actual Average (KHRO) Record (KHRO)
Temperature  
Mean Temperature 78 °F 79 °F  
Max Temperature 84 °F 90 °F 106 °F (1986)
Min Temperature 71 °F 68 °F 54 °F (1925)
Degree Days  
Heating Degree Days 0 0  
Month to date heating degree days 0  
Since 1 June heating degree days 6  
Since 1 July heating degree days 0  
Cooling Degree Days 12 14  
Month to date cooling degree days 401  
Year to date cooling degree days 805  
Since 1 June cooling degree days 666  
Growing Degree Days 28 (Base 50)    
Moisture  
Dew Point 72 °F    
Average Humidity 93    
Maximum Humidity 100    
Minimum Humidity 66    
Precipitation  
Precipitation 0.36 in 0.11 in 4.90 in (1927)
Month to date precipitation 3.04  
Year to date precipitation 25.28  
Snow  
Snow 0.00 in 0.00 in - ()
Month to date snowfall 0.0  
Since 1 June snowfall 0.0  
Since 1 July snowfall 0.0  
Snow Depth -    
Sea Level Pressure  
Sea Level Pressure 30.07 in    
Wind  
Wind Speed 7 mph (SSE)    
Max Wind Speed 12 mph    
Max Gust Speed 17 mph    
Visibility 6 miles    
Events Rain , Thunderstorm    
T = Trace of Precipitation, MM = Missing Value Source: NWS Daily Summary

Daily Weather History Graph

Daily Weather History Graph

Search for Another Location

Airport:

Trip Planner

Search our weather history database for the weather conditions in past years. The results will help you decide how hot, cold, wet, or windy it might be!

Date:

Astronomy

Jul. 30, 2013 Rise Set
Actual Time 6:17 AM CDT 8:20 PM CDT
Civil Twilight 5:48 AM CDT 8:48 PM CDT
Nautical Twilight 5:14 AM CDT 9:23 PM CDT
Astronomical Twilight 4:36 AM CDT 10:01 PM CDT
Moon 12:34 AM CDT (7/30) 2:41 PM CDT (7/30)
Length of Visible Light 14h 59m
Length of Day
14h 02m
Last Quarter, 41% of the Moon is Illuminated
Jul 30
Last Quarter
Aug 6
New
Aug 14
First Quarter
Aug 20
Full
Aug 28
Last Quarter

Hourly Weather History & Observations

Time (CDT) Temp. Heat Index Dew Point Humidity Pressure Visibility Wind Dir Wind Speed Gust Speed Precip Events Conditions
12:15 AM 73.4 °F - 71.6 °F 94% 30.09 in 5.0 mi SE 11.5 mph 17.3 mph N/A Rain , Thunderstorm Light Rain
12:35 AM 73.4 °F - 71.6 °F 94% 30.09 in 1.8 mi ESE 8.1 mph - 0.08 in Rain Rain
12:55 AM 73.4 °F - 71.6 °F 94% 30.09 in 4.0 mi ESE 8.1 mph - 0.13 in Rain , Thunderstorm Light Rain
1:15 AM 73.4 °F - 71.6 °F 94% 30.09 in 7.0 mi SE 9.2 mph - N/A   Overcast
1:35 AM 73.4 °F - 71.6 °F 94% 30.09 in 7.0 mi ESE 8.1 mph - N/A Rain Light Rain
1:55 AM 71.6 °F - 71.6 °F 100% 30.09 in 5.0 mi ESE 6.9 mph - N/A Rain Light Rain
2:15 AM 71.6 °F - 71.6 °F 100% 30.08 in 3.0 mi ESE 8.1 mph - N/A Rain Light Rain
2:35 AM 71.6 °F - 71.6 °F 100% 30.08 in 2.5 mi ESE 5.8 mph - 0.02 in Rain Light Rain
2:55 AM 71.6 °F - 71.6 °F 100% 30.09 in 2.5 mi ESE 5.8 mph - 0.05 in Rain Light Rain
3:15 AM 71.6 °F - 71.6 °F 100% 30.07 in 2.5 mi ESE 11.5 mph - N/A Rain Light Rain
3:35 AM 71.6 °F - 71.6 °F 100% 30.06 in 3.0 mi SE 10.4 mph - 0.01 in Rain Light Rain
3:55 AM 71.6 °F - 71.6 °F 100% 30.06 in 4.0 mi SE 10.4 mph - 0.01 in Rain Light Rain
4:15 AM 71.6 °F - 71.6 °F 100% 30.07 in 4.0 mi SE 6.9 mph - N/A Rain Light Rain
4:35 AM 71.6 °F - 71.6 °F 100% 30.07 in 3.0 mi South 3.5 mph - 0.01 in Rain Light Rain
4:55 AM 71.6 °F - 71.6 °F 100% 30.07 in 3.0 mi SSE 4.6 mph - 0.03 in Rain Light Rain
5:15 AM 71.6 °F - 71.6 °F 100% 30.07 in 2.5 mi SSE 5.8 mph - 0.01 in Rain Light Rain
5:35 AM 71.6 °F - 71.6 °F 100% 30.06 in 2.0 mi SE 6.9 mph - 0.05 in Rain Rain
5:55 AM 71.6 °F - 71.6 °F 100% 30.07 in 2.0 mi SSE 3.5 mph - 0.10 in Rain , Thunderstorm Rain
6:15 AM 71.6 °F - 71.6 °F 100% 30.08 in 1.5 mi Calm Calm - 0.04 in Rain Rain
6:50 AM 71.6 °F - 71.6 °F 100% 30.08 in 1.0 mi Calm Calm - N/A Rain Light Rain
7:52 AM 71.6 °F - 71.6 °F 100% 30.09 in 2.0 mi Calm Calm - N/A Rain Light Rain
8:46 AM 71.6 °F - 69.8 °F 94% 30.09 in 4.0 mi SW 5.8 mph - N/A Rain Light Rain
9:57 AM 71.6 °F - 69.8 °F 94% 30.08 in 7.0 mi South 6.9 mph - N/A   Overcast
10:45 AM 73.4 °F - 69.8 °F 88% 30.08 in 8.0 mi Calm Calm - N/A   Overcast
11:06 AM 73.4 °F - 69.8 °F 88% 30.10 in 1.5 mi WSW 4.6 mph - N/A Rain Light Rain
11:45 AM 71.6 °F - 69.8 °F 94% 30.10 in 3.0 mi Calm Calm - N/A Rain Light Rain
12:51 PM 73.4 °F - 71.6 °F 94% 30.08 in 10.0 mi Calm Calm - N/A   Overcast
1:52 PM 78.8 °F - 71.6 °F 78% 30.07 in 10.0 mi SSW 5.8 mph - N/A   Mostly Cloudy
2:45 PM 82.4 °F 88.2 °F 73.4 °F 74% 30.06 in 10.0 mi SW 4.6 mph - N/A   Mostly Cloudy
3:45 PM 82.4 °F 86.3 °F 69.8 °F 66% 30.04 in 10.0 mi WSW 8.1 mph - N/A   Mostly Cloudy
4:45 PM 84.2 °F 89.6 °F 71.6 °F 66% 30.04 in 10.0 mi West 3.5 mph - N/A   Mostly Cloudy
5:45 PM 84.2 °F 89.6 °F 71.6 °F 66% 30.03 in 10.0 mi NNW 5.8 mph - N/A   Mostly Cloudy
6:45 PM 82.4 °F 88.2 °F 73.4 °F 74% 30.03 in 10.0 mi NE 4.6 mph - N/A   Mostly Cloudy
7:50 PM 78.8 °F - 73.4 °F 83% 30.03 in 10.0 mi ESE 6.9 mph - N/A   Scattered Clouds
8:45 PM 77.0 °F - 75.2 °F 94% 30.03 in 10.0 mi ESE 8.1 mph - N/A   Mostly Cloudy
8:55 PM 77.0 °F - 75.2 °F 94% 30.04 in 10.0 mi SE 5.8 mph - N/A   Mostly Cloudy
9:15 PM 77.0 °F - 75.2 °F 94% 30.04 in 10.0 mi ESE 4.6 mph - N/A   Overcast
9:35 PM 77.0 °F - 75.2 °F 94% 30.06 in 10.0 mi SE 3.5 mph - N/A   Overcast
9:55 PM 77.0 °F - 75.2 °F 94% 30.06 in 9.0 mi South 5.8 mph - N/A   Mostly Cloudy
10:15 PM 75.2 °F - 73.4 °F 94% 30.07 in 10.0 mi SSE 5.8 mph - N/A   Overcast
10:35 PM 75.2 °F - 73.4 °F 94% 30.06 in 8.0 mi South 5.8 mph - N/A Rain Light Rain
10:55 PM 75.2 °F - 73.4 °F 94% 30.06 in 9.0 mi Calm Calm - N/A   Mostly Cloudy
11:15 PM 75.2 °F - 73.4 °F 94% 30.07 in 8.0 mi WSW 3.5 mph - N/A   Overcast
11:35 PM 75.2 °F - 73.4 °F 94% 30.07 in 9.0 mi Calm Calm - N/A   Overcast
11:55 PM 73.4 °F - 73.4 °F 100% 30.07 in 8.0 mi SSW 3.5 mph - N/A   Mostly Cloudy